Weather in Selychka

Russia / Udmurt Republic     57°04′15″N   53°11′30″E
temp.,
°C
wind,
m/s
gust,
m/s
humid.,
%
clouds,
%
prec.,
mm/h
press.,
hPa
HPBL,
m
7 may, fri
fri701:00+8s2480100 0.0 101664
04:00+8s31086100 0.0 1016214
07:00+12ssw3107376 0.0 1016278
10:00+18ssw594660 0.0 10161513
13:00+19ssw6937100 0.0 10162577
16:00+19ssw5938100 0.0 10152630
19:00+16ssw4851100 0.0 1015848
22:00+13s3864100 0.2 1015261
8 may, sat
sat801:00+12s31068100 0.1 1015287
04:00+10sw1178100 0.1 101628
07:00+12wnw1274100 0.0 1017190
10:00+15sw2364100 0.2 1017611
13:00+16sw1258100 0.5 1017757
16:00+18sw1249100 0.8 10171354
19:00+16e005685 0.0 101619
22:00+14se12665 0.1 101627
9 may, sun
sun901:00+11se11755 0.0 101613
04:00+10sse22814 0.0 101734
07:00+13sse36682 0.0 1017251
10:00+18sse46474 0.0 1016947
13:00+21sse46355 0.0 10161954
16:00+22s45336 0.0 10162277
19:00+19sse264428 0.0 1016323
22:00+15se235743 0.0 101743
10 may, mon
mon1001:00+14ese2360100 0.0 101854
04:00+13se2664100 0.0 1019110
07:00+14se2760100 0.0 1021207
10:00+17sse3649100 0.0 1021327
13:00+22s3436100 0.0 10211453
16:00+22w3444100 0.0 10211433
19:00+16n4881100 0.2 1023392
22:00+13nnw2591100 0.6 1024333
11 may, tue
tue1101:00+11n379245 0.0 1026336
04:00+9n498998 0.0 1027419
07:00+10n4676100 0.0 1028461
10:00+14nne455288 0.0 10291069
13:00+17n45265 0.0 10291363
16:00+18nne45255 0.0 10281593
19:00+16n25395 0.0 1028412
22:00+11n2256100 0.0 102942